Regional Weather Roundup
Issued by NWS

Home | Current Version | Previous Version | Graphics & Text | Print | Product List | Glossary On
Versions: 1 2 3 4 5 6 7 8 9 10 11 12 13 14 15 16 17 18 19 20 21 22 23 24 25 26 27 28 29 30 31 32 33 34 35 36 37 38 39 40 41 42 43 44 45 46 47 48 49 50
000
ASUS45 KCYS 301310
RWRWY

WYOMING REGIONAL WEATHER ROUNDUP
NATIONAL WEATHER SERVICE CHEYENNE WY
700 AM MDT SUN AUG 30 2015

NOTE:  "FAIR" INDICATES FEW OR NO CLOUDS BELOW 12,000 FEET
WITH NO SIGNIFICANT WEATHER AND/OR OBSTRUCTIONS TO VISIBILITY.

WYZ001-301400-
YELLOWSTONE NATIONAL PARK

CITY           SKY/WX    TMP DP  RH WIND       PRES   REMARKS
LK YELLOWSTONE   N/A     45  43  93 CALM      30.17R
W YELLOWSTONE  NOT AVBL

$$
WYZ002>013-054>058-071-098>099-301400-
NORTHERN WYOMING

CITY           SKY/WX    TMP DP  RH WIND       PRES   REMARKS
JACKSON        PTCLDY    54  50  87 CALM      30.09R
CODY           FAIR      70  45  40 SE6       29.92R
GREYBULL       FAIR      68  44  42 NW8       29.85R
WORLAND        FAIR      60  49  66 MISG      29.89R
SHERIDAN       FAIR      65  44  46 S8        29.84S
BUFFALO        FAIR      74  37  26 NW10      29.92R
GILLETTE       FAIR      77  33  20 SW21      29.86R
HULETT         FAIR      81  36  19 S15G22    29.88R
NEWCASTLE      FAIR      63  39  42 CALM      29.94R

$$
WYZ014>020-022>026-101>103-301400-
CENTRAL WYOMING

CITY           SKY/WX    TMP DP  RH WIND       PRES   REMARKS
BIG PINEY      FAIR      52  38  58 W9        30.14S
PINEDALE       FAIR      50  41  71 CALM      30.16R
DUBOIS         FAIR      54  45  71 W7        30.12R
LANDER         FAIR      68  38  33 W6        29.98R
RIVERTON       FAIR      64  37  36 S7        30.00R
CASPER         FAIR      64  32  30 W9        30.00R
DOUGLAS        FAIR      58  40  51 S5        30.00S

$$
WYZ021-027>030-104>119-301400-
SOUTHERN WYOMING

CITY           SKY/WX    TMP DP  RH WIND       PRES   REMARKS
EVANSTON       MOCLDY    65  41  41 SW9       30.15R
KEMMERER       FAIR      61  37  41 SW12      30.17R
FORT BRIDGER   SUNNY     70  41  35 SW15      30.17R
ROCK SPRINGS   FAIR      66  33  29 S7        30.13R
DIXON          FAIR      48  35  60 SE5       30.21R
RAWLINS        FAIR      64  29  26 S7        30.16R
SARATOGA       FAIR      55  36  47 SE10      30.21S
LARAMIE        FAIR      51  36  56 SW7       30.23R
CHEYENNE       FAIR      60  39  45 W12       30.14R
TORRINGTON     FAIR      57  42  57 E7        29.97S
PINE BLUFFS    FAIR      54  41  62 SW8       30.08S

$$


USA.gov is the U.S. government's official web portal to all federal, state and local government web resources and services.